Flag for Switzerland Weather past 2 weeks in Bülach, Zurich, Switzerland

Now
48 °F

Rain. Overcast.


Feels Like: 43 °F
Forecast: 33 / 45 °F
Wind: 10 mph from Southwest

Location: Zurich-Kloten

Current Time: Mar 2, 2015 at 2:06:52 AM

Latest Report: Mar 2, 2015 at 1:00 AM


Visibility: 6 mi

Pressure: 29.81 "Hg

Humidity: 90%

Dew point: 45 °F

Location of BülachLocation

Historic Weather in Bülach — Graph

°F

Bülach temperature yesterday

Maximum temperature yesterday: 49 °F (at 11:00 PM)
Minimum temperature yesterday: 29 °F (at 12:00 AM)
Average temperature yesterday: 41 °F

Past Weeks' High & Low Weather Summary

 TemperatureHumidityPressure
High52 °F (Feb 20, 3:00 PM)98% (Feb 22, 6:00 AM)30.76 "Hg (Feb 22, 6:00 AM)
Low24 °F (Feb 26, 6:00 AM)31% (Feb 20, 3:00 PM)29.59 "Hg (Feb 21, 11:00 AM)
Average35 °F83%30.09 "Hg
* Reported Midnight between Feb 14 and Feb 15 — Midnight between Mar 1 and Mar 2, Bülach, Weather by CustomWeather, © 2015

Note: Actual official high and low records may vary slightly from our data, if they occured in-between our weather recording intervals... More about our weather records

Advertising

Bülach weather history for previous 24 hours

 ConditionsComfort  
Time TempWeatherWind HumidityBarometerVisibility
12:00 AM
Mon, Mar 2
49 °FCool.15 mph85%29.83 "HgN/A
11:00 PM
Sun, Mar 1
49 °FCool.13 mph80%29.84 "HgN/A
9:00 PM47 °FCool.10 mph87%29.86 "HgN/A
8:00 PM48 °FCool.13 mph83%29.88 "HgN/A
7:00 PM47 °FOvercast.16 mph83%29.87 "Hg16 mi
6:00 PM47 °FCool.14 mph80%29.87 "HgN/A
5:00 PM47 °FCool.16 mph79%29.87 "HgN/A
4:00 PM48 °FOvercast.8 mph77%29.87 "Hg19 mi
3:00 PM46 °FCool.7 mph82%29.88 "HgN/A
2:00 PM45 °FQuite cool.9 mph80%29.91 "HgN/A
1:00 PM44 °FOvercast.15 mph82%29.93 "Hg22 mi
12:00 PM44 °FQuite cool.17 mph83%29.94 "HgN/A
11:00 AM40 °FQuite cool.12 mph86%29.96 "HgN/A
10:00 AM38 °FLight rain. Low clouds.12 mph90%29.98 "Hg4 mi
9:00 AM36 °FChilly.13 mph91%29.98 "HgN/A
8:00 AM35 °FChilly.12 mph92%29.99 "HgN/A
7:00 AM35 °FDrizzle. Overcast.10 mph90%29.99 "Hg4 mi
6:00 AM37 °FChilly.8 mph82%29.99 "HgN/A
5:00 AM37 °FChilly.6 mph75%29.99 "HgN/A
3:00 AM33 °FChilly.6 mph87%30.02 "HgN/A
2:00 AM31 °FChilly.6 mph90%30.05 "HgN/A
Weather by CustomWeather, © 2015

See weather overviewHow to use our weather pages